Presure
172 213 204 194 221 191 238 252 195 243 233 256 193 287 357 203 236 259 364 362 359 336 341 239 275 187 223 197 191 193 180 183 182 181 175 181 210 204
200 220 231 215 228 220 238 189 260 224 281 180 356 282 242 364 258 357 359 351 247 337 280 224 258 221 178 221 198 197 186 183 192 193 191 192 179 198
219 198 188 222 201 220 250 249 264 230 288 366 233 337 351 353 347 297 341 339 333 334 333 325 248 225 215 204 261 205 185 197 200 188 195 184 195 202
225 233 212 205 250 250 258 267 278 293 362 357 334 349 344 341 335 333 338 332 328 324 322 320 313 186 289 278 248 255 260 206 206 205 210 194 194 182
208 193 232 238 253 262 271 279 311 355 348 338 341 337 333 332 332 335 331 332 328 318 321 322 317 293 281 291 263 253 248 250 217 207 207 206 192 201
197 240 250 255 263 273 286 365 355 343 346 339 339 331 326 322 322 324 332 333 325 322 316 311 313 287 283 286 262 262 256 252 263 255 227 213 204 203
241 249 254 265 279 353 362 346 347 349 338 331 331 331 321 316 318 322 322 325 327 327 323 317 310 314 314 296 284 287 256 264 270 253 240 250 220 212
249 252 263 278 366 353 352 352 343 335 333 326 324 325 319 318 315 317 316 318 320 321 325 323 321 306 311 299 289 290 280 271 267 259 254 256 254 236
260 268 280 366 364 356 348 340 337 330 324 321 321 320 319 317 317 316 314 314 312 315 321 326 323 323 314 313 307 311 317 304 304 278 270 263 254 260
270 282 358 367 354 346 347 334 328 380 420 416 418 425 420 410 390 344 319 318 315 308 311 319 317 327 331 326 323 315 314 316 306 289 288 292 283 274
286 375 365 354 349 336 336 410 413 418 434 522 534 505 445 402 402 421 405 378 315 309 310 316 313 317 321 325 328 329 333 325 309 275 269 291 295 293
379 365 354 345 338 364 409 412 443 414 534 522 505 489 478 469 447 396 398 413 426 414 310 320 318 315 315 319 324 331 339 339 341 329 316 298 301 292
369 359 341 336 414 399 409 435 406 502 510 487 465 453 445 440 436 433 413 404 426 427 419 428 350 321 323 320 324 326 329 337 340 343 337 325 303 298
360 342 340 411 395 402 408 427 482 469 482 470 453 435 423 416 414 413 413 414 417 413 411 420 425 423 428 428 388 337 341 342 339 339 340 345 343 336
342 354 409 394 409 400 406 416 463 446 443 437 431 421 413 406 403 400 402 410 415 413 414 423 417 415 440 439 434 436 436 442 445 435 350 349 348 350
351 415 399 432 339 336 385 431 387 446 432 420 415 411 409 408 408 411 411 416 414 414 433 416 408 404 405 412 414 411 422 433 454 464 455 454 372 355
419 403 429 426 416 407 386 366 455 384 380 412 413 414 417 422 449 435 408 374 386 395 389 388 421 425 449 465 460 450 448 450 454 476 463 465 471 474
405 412 357 381 377 412 399 388 384 399 443 436 430 414 404 397 391 385 381 378 377 388 407 391 398 385 392 396 388 420 440 451 444 441 440 451 447 457
396 335 384 399 394 435 396 385 374 384 376 370 366 366 366 368 368 372 383 404 407 377 369 364 361 362 371 363 361 363 376 396 397 397 401 417 419 437
337 390 415 436 465 434 410 396 390 381 376 377 387 404 410 404 405 398 391 373 364 360 356 358 349 347 348 356 352 357 359 360 367 373 382 394 398 404
374 390 469 463 451 433 414 407 409 405 407 420 415 401 397 401 379 370 360 354 348 346 344 344 341 338 339 338 341 343 343 342 346 349 352 357 363 369
365 419 379 468 447 436 432 435 436 428 415 394 388 385 398 374 365 359 353 350 346 352 343 339 340 332 333 335 333 332 335 334 335 334 344 339 341 343
323 322 318 322 320 319 420 418 411 404 398 386 385 384 378 359 355 353 349 347 344 345 335 331 333 335 327 336 322 320 323 322 321 321 322 323 326 326
Wind_Speed
88 121 124 106 128 94 127 124 89 124 104 123 101 122 92 65 85 65 75 75 77 76 77 81 83 87 84 90 85 86 74 75 73 71 64 63 70 69
125 123 119 112 127 119 127 92 127 107 125 96 97 83 86 67 64 66 68 69 73 72 68 63 74 93 71 90 88 93 84 80 83 82 79 74 66 68
123 122 104 132 131 141 130 126 131 113 131 86 78 82 68 63 63 55 65 67 71 71 73 73 86 95 77 97 96 86 82 89 92 83 86 80 79 74
123 122 140 137 132 133 133 139 142 142 91 83 85 72 68 65 61 60 64 67 70 71 73 75 79 81 90 96 96 96 98 98 97 94 92 86 87 75
138 113 132 133 136 139 143 143 131 93 90 87 77 71 68 67 64 62 63 67 71 73 73 76 79 83 88 93 100 99 100 102 97 99 98 97 88 94
138 133 135 137 141 146 149 98 95 94 87 84 78 74 70 70 67 65 64 66 70 74 77 78 81 83 86 92 97 99 100 100 104 104 104 101 99 98
133 135 138 145 149 115 102 101 96 89 88 86 82 79 75 73 71 68 65 68 70 73 77 81 83 82 87 89 94 99 101 103 106 105 106 107 105 103
136 138 144 147 105 105 102 97 96 95 92 91 88 84 81 78 75 71 69 68 69 74 77 80 84 86 90 92 94 96 99 104 106 106 106 108 110 110
141 145 148 108 102 101 100 101 99 99 98 97 94 90 89 86 81 76 74 71 69 74 76 77 84 85 92 94 96 97 99 103 105 108 110 112 112 113
147 150 115 102 103 104 101 101 102 92 84 86 84 81 84 86 86 85 80 75 73 74 79 74 83 83 88 90 94 98 100 100 102 104 106 109 115 118
150 103 102 104 103 105 105 87 84 84 82 60 57 64 77 77 76 79 83 81 74 76 81 76 80 81 84 87 90 93 94 98 101 97 97 106 109 112
99 101 102 103 104 96 84 85 79 74 42 40 42 45 48 50 63 71 69 67 67 71 81 79 79 81 82 85 85 87 89 91 91 96 102 106 107 108
98 97 101 103 76 80 78 75 71 46 33 33 33 35 38 40 43 48 56 56 52 50 56 58 72 80 79 83 85 85 85 86 85 88 93 100 107 108
97 98 99 72 75 72 71 64 45 40 32 29 26 26 28 32 34 37 41 42 42 40 44 45 43 47 47 47 62 81 81 81 82 84 87 90 95 99
96 92 70 72 66 64 63 56 41 34 29 24 21 20 21 25 29 32 34 35 34 33 32 32 32 34 28 29 34 36 39 39 39 46 81 83 86 89
87 64 66 59 65 61 56 48 41 32 25 22 20 19 19 21 23 24 24 24 22 22 15 17 20 24 28 30 33 37 38 37 34 33 38 41 72 82
60 62 59 53 53 50 48 45 32 30 25 21 18 17 16 15 13 11 11 16 14 13 13 15 9 10 11 15 19 22 23 22 23 18 19 22 24 25
58 58 56 51 50 41 38 38 33 26 15 11 8 8 7 6 5 5 6 7 8 9 4 4 3 5 4 5 7 5 4 6 9 10 10 15 19 19
55 52 49 45 42 30 32 31 30 23 18 16 15 14 13 11 10 9 8 4 3 3 2 1 1 2 2 3 5 5 4 3 4 6 6 5 7 8
49 46 43 37 25 24 25 24 22 20 19 17 14 11 5 2 3 7 7 5 3 2 2 2 1 1 1 1 2 2 2 3 2 3 4 3 4 4
43 41 31 27 21 19 22 22 20 17 14 10 9 9 8 10 8 7 5 3 3 4 4 4 3 2 2 1 1 1 0 0 0 0 1 1 1 1
36 34 30 19 16 16 16 14 11 10 11 9 9 8 9 6 4 2 1 0 1 4 3 4 4 4 4 4 3 2 3 3 4 4 4 4 4 3
32 30 30 29 27 26 12 13 12 10 9 9 8 7 4 6 5 3 2 1 1 1 1 1 2 3 4 4 5 4 4 4 5 5 5 5 5 5
Wind_Direction
307 304 308 310 304 310 300 298 304 301 298 299 280 298 297 286 288 274 273 269 264 258 248 248 253 269 244 251 256 252 264 261 260 260 260 256 247 247
307 302 300 304 301 306 302 295 303 293 304 292 305 294 291 286 278 275 271 268 273 257 254 254 252 248 271 253 253 251 260 263 254 251 252 251 258 248
302 307 311 306 309 306 304 303 305 300 307 306 290 301 293 285 280 275 268 263 260 257 252 244 254 250 261 254 240 246 261 253 249 259 249 260 247 243
302 303 304 309 304 305 307 307 307 307 305 303 302 295 291 286 281 273 267 263 258 256 253 247 239 269 237 236 240 240 239 246 243 244 239 251 249 255
305 307 305 306 307 308 308 308 307 304 303 302 297 292 288 284 280 273 267 262 257 253 252 251 245 237 237 236 238 239 238 239 243 244 242 241 252 245
309 307 308 309 309 308 308 305 304 303 300 298 295 291 287 283 279 274 268 261 257 255 251 246 245 239 237 236 241 238 239 238 238 239 241 241 244 245
308 310 310 310 309 307 306 305 303 299 297 295 292 289 286 281 278 273 268 264 259 254 252 249 245 246 244 239 237 237 238 240 240 239 239 239 241 241
309 311 310 309 308 307 304 303 301 299 296 294 291 288 284 280 276 272 268 264 259 257 254 250 247 244 243 240 240 239 238 238 238 239 241 241 239 240
310 310 311 309 307 304 304 303 301 299 297 293 290 287 283 279 276 271 266 263 260 257 254 252 251 248 245 243 242 242 243 239 240 239 240 240 241 240
310 310 310 308 306 305 304 303 301 296 291 288 283 278 273 270 268 268 265 261 258 256 256 251 252 251 250 248 245 243 242 243 241 240 240 240 239 240
310 311 309 307 305 305 305 303 301 298 292 284 278 276 272 270 268 266 264 262 257 256 256 252 251 251 251 251 251 249 247 243 242 240 242 242 240 240
312 310 308 308 308 308 308 307 306 301 294 288 280 276 273 270 267 264 265 267 267 263 255 254 252 251 252 252 251 251 251 250 249 244 242 243 242 241
310 309 309 309 311 312 311 312 310 311 298 289 286 282 275 270 268 267 267 268 268 266 264 265 256 254 252 253 253 251 251 250 249 249 248 243 242 243
311 312 311 313 313 314 316 317 318 317 307 298 287 279 274 272 270 268 268 270 270 268 267 268 266 264 264 263 258 253 252 251 249 248 248 248 248 245
313 314 314 314 314 317 322 321 321 322 321 317 307 294 281 273 271 271 272 274 277 275 271 270 268 266 263 258 258 259 259 258 256 252 248 248 248 248
314 314 314 316 318 321 324 326 323 322 321 316 309 299 287 281 276 276 276 277 274 273 267 268 266 264 262 257 255 256 258 259 259 254 252 251 248 247
316 315 318 316 315 317 323 328 325 322 322 319 312 305 298 293 286 283 276 275 269 269 275 277 270 279 283 269 260 260 259 260 260 257 253 255 251 253
317 318 318 319 320 316 324 328 333 336 347 349 358 357 355 340 322 290 281 281 279 280 253 253 279 275 271 266 257 284 297 262 252 260 269 266 255 252
318 320 321 321 321 313 322 327 331 343 345 342 338 334 329 322 321 312 294 268 155 156 176 221 287 315 358 289 281 281 279 221 224 239 258 264 243 222
322 324 324 325 332 323 323 325 327 326 327 328 324 328 339 10 96 103 102 124 147 135 123 118 199 274 282 315 295 312 328 315 302 271 253 250 246 241
323 327 330 335 341 334 327 327 327 327 332 356 44 54 68 98 112 118 123 137 166 165 167 165 166 176 182 199 199 221 190 278 17 66 165 144 115 160
326 328 333 345 348 347 347 355 10 39 61 56 47 50 86 99 111 120 122 190 206 178 184 194 181 175 175 175 170 177 173 149 133 135 102 135 133 133
327 330 332 335 340 347 30 34 42 52 56 46 44 60 89 43 39 27 9 357 339 252 231 199 206 188 169 173 158 156 158 154 155 152 148 141 141 140